#timestamp,LO_Frequency,Hit,StdDev 
1506499215.7,286046999.1,N
1506499235.5,286047007.3,N
1506499255.4,286047024.8,Y
1506499275.2,286047032.3,P
1506499295.1,286047038.6,N
1506499296.0,286047038.6,N
1506499315.8,286047062.0,Y
1506499335.6,286047048.1,P
1506499355.5,286047054.5,P
1506499375.3,286047067.3,P
1506499395.1,286047078.9,Y
1506499415.9,286047019.3,P
1506499435.7,286047008.3,N
1506499455.5,286047014.3,N
1506499475.4,286047034.9,N
1506499495.2,286047044.0,N
1506499515.0,286047039.7,N
1506499515.9,286047039.7,N
1506499535.8,286047045.8,Y
1506499555.6,286047007.4,P
1506499575.4,286046996.0,N
1506499595.2,286046982.1,N
1506499615.1,286046974.2,N
1506499616.0,286046974.2,N
1506499635.8,286046961.8,N
1506499655.6,286046955.4,N
1506499675.5,286046942.2,N
1506499695.3,286046933.4,N
1506499715.1,286046926.1,N
1506499735.9,286046922.7,N
1506499755.7,286046916.4,N
1506499775.5,286046910.4,N
1506499795.4,286046908.2,N
1506499815.2,286046902.3,N
1506499835.0,286046899.0,N
1506499835.9,286046899.0,N
1506499855.8,286046898.5,N
1506499875.6,286046893.5,N
1506499895.4,286046896.8,N
1506499915.2,286046912.0,N
1506499935.1,286046920.7,N
1506499936.0,286046920.7,N
1506499955.8,286046923.5,N
1506499975.6,286046922.2,N
1506499995.5,286046917.8,N
1506500015.3,286046923.6,N
1506500035.1,286046918.1,N
1506500055.9,286046910.1,N
1506500075.7,286046910.8,N
1506500095.5,286046916.9,N
1506500115.4,286046928.2,N
1506500135.2,286046929.4,Y
1506500155.0,286047000.6,P
1506500155.9,286047000.6,N
1506500175.8,286047005.9,N
1506500195.6,286047006.0,N
1506500215.4,286047007.7,N
1506500235.3,286047017.7,N
1506500255.1,286047014.4,N
1506500256.0,286047014.4,N
1506500275.8,286047014.4,N
1506500295.6,286047021.0,N
1506500315.5,286047026.6,N
1506500335.3,286047023.9,N
1506500355.1,286047027.1,N
1506500375.9,286047027.3,N
1506500395.7,286047025.1,N
1506500415.5,286047018.3,N
1506500435.4,286047012.1,N
1506500455.2,286047010.2,N
1506500475.0,286047003.8,N
1506500475.9,286047003.8,N
1506500495.8,286046997.8,N
1506500515.6,286046991.3,N
1506500535.4,286046987.1,N
1506500555.3,286046985.9,N
1506500575.1,286046986.2,N
1506500576.0,286046986.2,N
1506500595.8,286046981.0,N
1506500615.6,286046979.0,N
1506500635.5,286046983.5,N
1506500655.3,286046984.1,N
1506500675.1,286046986.6,N
1506500695.9,286046983.3,N
1506500715.7,286046981.5,N
1506500735.5,286046981.6,N
1506500755.4,286046977.8,N
1506500775.2,286046973.6,N
1506500795.0,286046970.4,N
1506500795.9,286046970.4,N
1506500815.8,286046967.6,N
1506500835.6,286046964.3,N
1506500855.4,286046960.6,N
1506500875.3,286046957.2,N
1506500895.1,286046953.5,N
1506500896.0,286046953.5,N
1506500915.8,286046952.3,N
1506500935.7,286046952.4,N
1506500955.5,286046954.0,N
1506500975.3,286046949.3,Y
1506500995.2,286046970.9,P
1506501015.9,286046975.1,P
1506501035.7,286046975.5,P
1506501055.6,286046975.0,Y
1506501075.4,286047004.0,P
1506501095.2,286047000.4,N
1506501115.1,286046999.1,N
1506501116.0,286046999.1,N
1506501135.8,286046996.6,N
1506501155.6,286046994.9,N
1506501175.4,286046996.1,N
1506501195.3,286046997.9,N
1506501215.1,286046995.6,N
1506501235.8,286046994.0,N
1506501255.7,286046992.7,N
1506501275.5,286046991.3,N
1506501295.3,286046987.2,N
1506501315.2,286046986.3,N
1506501335.9,286046986.3,N
1506501355.7,286046982.7,N
1506501375.6,286046984.0,N
1506501395.4,286046984.2,N
1506501415.2,286046985.5,N
1506501435.0,286046988.2,N
1506501436.0,286046988.2,N
1506501455.8,286046987.7,N
1506501475.6,286046988.0,N
1506501495.4,286046984.6,N
1506501515.3,286046984.8,N
1506501535.1,286046979.7,Y
1506501555.8,286046985.8,P
1506501575.7,286046984.3,P
1506501595.5,286046980.6,P
1506501615.3,286046983.2,Y
1506501635.2,286046994.9,P
1506501655.0,286046995.3,N
1506501655.9,286046995.3,N
1506501675.7,286046995.2,N
1506501695.6,286046995.7,N
1506501715.4,286046995.1,N
1506501735.2,286046995.2,N
1506501755.1,286046993.3,N
1506501756.0,286046993.3,N
1506501775.8,286046993.5,N
1506501795.6,286046994.2,N
1506501815.5,286046993.6,N
1506501835.3,286046991.8,Y
1506501855.1,286046999.0,P
1506501875.9,286046998.9,N
1506501895.7,286046998.8,N
1506501915.5,286046999.1,N
1506501935.4,286046997.2,N
1506501955.2,286046996.6,N
1506501975.0,286046996.6,N
1506501975.9,286046996.6,N
1506501995.8,286046994.9,Y
1506502015.6,286046996.5,P
1506502035.4,286046995.2,P
1506502055.2,286046996.1,P
1506502075.1,286046997.4,Y
1506502076.0,286046997.4,P
1506502095.8,286047000.6,N
1506502115.7,286046998.4,N
1506502135.6,286046998.2,N
1506502155.4,286047000.9,N
1506502175.2,286046999.3,N
1506502195.0,286046998.8,N
1506502195.9,286046998.8,N
1506502215.8,286046997.4,N
1506502235.6,286046995.3,Y
1506502255.4,286046995.5,P
1506502275.3,286046994.1,P
1506502295.1,286046993.0,P
1506502315.9,286046990.1,Y
1506502335.7,286046996.1,P
1506502355.5,286046995.1,P
1506502375.3,286046996.1,P
1506502395.2,286046991.8,Y
1506502415.0,286046998.9,P
1506502415.9,286046998.9,N
1506502435.7,286046999.4,N
1506502455.6,286046997.6,N
1506502475.4,286046994.5,Y
1506502495.2,286046995.9,P
1506502515.1,286046996.3,P
1506502516.0,286046996.3,P
1506502535.8,286046996.3,Y
1506502555.7,286046996.6,P
1506502575.5,286046997.8,P
1506502595.3,286046994.0,P
1506502615.2,286046990.2,Y
1506502635.9,286046993.6,P
1506502655.7,286046995.6,P
1506502675.5,286046997.5,N
1506502695.4,286046996.1,N
1506502715.2,286046992.1,Y
1506502735.0,286046999.5,P
1506502736.0,286046999.5,N
1506502755.8,286046997.1,N
1506502775.6,286046996.0,N
1506502795.5,286046991.7,Y
